Wetterdaten: aktuell Freitag, 15.11.2019 05:50
Datum Zeit Temp. 2m Temp. 5cm Temp. -10cm Feuchte 2m Luftdruck Regen Wind Richtung Richtung Taupunkt Windchill Windben
15.11.2019 05:50 10,3 C 8,9 C 5,4 C 66 % 1003,4 hPa 0,0 l/m 10,8 km/h (2 Bft) N-NO 22 4,2 C 7,5 C 29,5 km/h (5 Bft)
15.11.2019 05:48 10,2 C 8,8 C 5,4 C 66 % 1003,4 hPa 0,0 l/m 9,5 km/h (2 Bft) W 270 4,1 C 8,1 C 24,5 km/h (4 Bft)
15.11.2019 05:46 10,2 C 9,1 C 5,4 C 67 % 1003,4 hPa 0,0 l/m 9,7 km/h (2 Bft) S-SW 202 4,4 C 8,0 C 24,5 km/h (4 Bft)
15.11.2019 05:44 10,1 C 8,4 C 5,4 C 67 % 1003,4 hPa 0,0 l/m 8,9 km/h (2 Bft) N-NW 337 4,3 C 8,4 C 15,4 km/h (3 Bft)
15.11.2019 05:42 10,1 C 8,7 C 5,4 C 67 % 1003,4 hPa 0,0 l/m 9,2 km/h (2 Bft) S-SO 157 4,3 C 8,2 C 15,4 km/h (3 Bft)
15.11.2019 05:40 9,7 C 8,5 C 5,4 C 68 % 1003,4 hPa 0,0 l/m 8,2 km/h (2 Bft) O-SO 112 4,1 C 8,4 C 14,5 km/h (3 Bft)
15.11.2019 05:38 9,8 C 8,6 C 5,4 C 68 % 1003,4 hPa 0,0 l/m 8,0 km/h (2 Bft) O 90 4,2 C 8,6 C 14,5 km/h (3 Bft)
15.11.2019 05:36 9,6 C 8,5 C 5,4 C 68 % 1003,4 hPa 0,0 l/m 7,7 km/h (2 Bft) W 270 4,0 C 8,6 C 15,1 km/h (3 Bft)
15.11.2019 05:34 9,7 C 8,6 C 5,4 C 68 % 1003,4 hPa 0,0 l/m 7,7 km/h (2 Bft) S-SO 157 4,1 C 8,7 C 15,1 km/h (3 Bft)
15.11.2019 05:32 9,4 C 8,1 C 5,3 C 68 % 1003,8 hPa 0,0 l/m 6,9 km/h (2 Bft) O-NO 67 3,8 C 9,0 C 11,6 km/h (2 Bft)
15.11.2019 05:30 9,6 C 8,4 C 5,3 C 68 % 1003,8 hPa 0,0 l/m 6,4 km/h (2 Bft) O-NO 67 4,0 C 9,6 C 10,2 km/h (2 Bft)
15.11.2019 05:28 9,4 C 8,6 C 5,3 C 68 % 1003,8 hPa 0,0 l/m 6,4 km/h (2 Bft) O-NO 67 3,8 C 9,4 C 11,2 km/h (2 Bft)
15.11.2019 05:26 9,4 C 8,4 C 5,3 C 68 % 1003,8 hPa 0,0 l/m 5,6 km/h (1 Bft) S-SO 157 3,8 C 9,4 C 11,2 km/h (2 Bft)
15.11.2019 05:24 9,4 C 8,5 C 5,3 C 68 % 1003,8 hPa 0,0 l/m 4,8 km/h (1 Bft) W 270 3,8 C 9,4 C 9,7 km/h (2 Bft)
15.11.2019 05:22 9,3 C 8,6 C 5,3 C 68 % 1003,8 hPa 0,0 l/m 4,5 km/h (1 Bft) SW 225 3,7 C 9,3 C 13,1 km/h (3 Bft)
15.11.2019 05:20 9,4 C 8,7 C 5,3 C 68 % 1003,8 hPa 0,0 l/m 3,7 km/h (1 Bft) SO 135 3,8 C 9,4 C 13,1 km/h (3 Bft)
15.11.2019 05:18 9,4 C 8,2 C 5,3 C 68 % 1003,8 hPa 0,0 l/m 3,1 km/h (1 Bft) O-NO 67 3,8 C 9,4 C 11,8 km/h (2 Bft)
15.11.2019 05:16 9,4 C 7,8 C 5,3 C 68 % 1003,8 hPa 0,0 l/m 3,1 km/h (1 Bft) O-SO 112 3,8 C 9,4 C 7,3 km/h (2 Bft)
15.11.2019 05:14 9,5 C 8,5 C 5,3 C 68 % 1003,8 hPa 0,0 l/m 5,5 km/h (1 Bft) NW 315 3,9 C 9,5 C 7,3 km/h (2 Bft)
15.11.2019 05:12 9,6 C 8,6 C 5,3 C 68 % 1003,8 hPa 0,0 l/m 6,3 km/h (2 Bft) W 270 4,0 C 9,6 C 5,4 km/h (1 Bft)
15.11.2019 05:10 9,5 C 8,5 C 5,3 C 68 % 1003,8 hPa 0,0 l/m 6,9 km/h (2 Bft) NO 45 3,9 C 9,1 C 7,3 km/h (2 Bft)
15.11.2019 05:08 9,9 C 8,8 C 5,3 C 68 % 1003,8 hPa 0,0 l/m 6,9 km/h (2 Bft) SO 135 4,3 C 9,5 C 11,8 km/h (2 Bft)
15.11.2019 05:06 9,8 C 9,1 C 5,3 C 69 % 1003,8 hPa 0,0 l/m 8,0 km/h (2 Bft) O-NO 67 4,4 C 8,6 C 17,2 km/h (3 Bft)
15.11.2019 05:04 9,3 C 8,5 C 5,3 C 69 % 1003,8 hPa 0,0 l/m 6,6 km/h (2 Bft) O-SO 112 3,9 C 9,2 C 17,2 km/h (3 Bft)
15.11.2019 05:02 8,9 C 7,4 C 5,3 C 69 % 1003,8 hPa 0,0 l/m 6,0 km/h (2 Bft) S-SW 202 3,5 C 8,9 C 17,2 km/h (3 Bft)
15.11.2019 05:00 8,7 C 7,8 C 5,3 C 69 % 1003,8 hPa 0,0 l/m 6,0 km/h (2 Bft) NO 45 3,3 C 8,7 C 7,9 km/h (2 Bft)
15.11.2019 04:58 8,7 C 7,7 C 5,3 C 69 % 1003,8 hPa 0,0 l/m 7,1 km/h (2 Bft) O 90 3,3 C 8,2 C 17,8 km/h (3 Bft)
15.11.2019 04:56 9,0 C 8,4 C 5,3 C 68 % 1003,8 hPa 0,0 l/m 7,6 km/h (2 Bft) S-SW 202 3,4 C 8,1 C 17,8 km/h (3 Bft)
15.11.2019 04:54 8,9 C 7,8 C 5,3 C 68 % 1003,8 hPa 0,0 l/m 6,6 km/h (2 Bft) S-SO 157 3,3 C 8,8 C 13,7 km/h (3 Bft)
15.11.2019 04:52 9,0 C 8,1 C 5,3 C 68 % 1004,0 hPa 0,0 l/m 6,3 km/h (2 Bft) O-NO 67 3,4 C 9,0 C 7,9 km/h (2 Bft)
15.11.2019 04:50 9,1 C 8,3 C 5,3 C 68 % 1004,0 hPa 0,0 l/m 7,6 km/h (2 Bft) W-SW 247 3,5 C 8,2 C 7,9 km/h (2 Bft)
15.11.2019 04:48 9,3 C 8,1 C 5,3 C 68 % 1004,0 hPa 0,0 l/m 8,2 km/h (2 Bft) W 270 3,7 C 8,0 C 16,6 km/h (3 Bft)
15.11.2019 04:46 9,2 C 8,2 C 5,2 C 68 % 1004,0 hPa 0,0 l/m 7,6 km/h (2 Bft) O-NO 67 3,6 C 8,3 C 16,6 km/h (3 Bft)
15.11.2019 04:44 9,3 C 8,3 C 5,2 C 68 % 1004,0 hPa 0,0 l/m 6,9 km/h (2 Bft) NW 315 3,7 C 8,9 C 9,8 km/h (2 Bft)
15.11.2019 04:42 9,3 C 8,3 C 5,2 C 68 % 1004,0 hPa 0,0 l/m 6,6 km/h (2 Bft) O 90 3,7 C 9,2 C 37,7 km/h (5 Bft)
15.11.2019 04:40 9,3 C 8,2 C 5,2 C 68 % 1004,0 hPa 0,0 l/m 6,1 km/h (2 Bft) NO 45 3,7 C 9,3 C 37,7 km/h (5 Bft)
15.11.2019 04:38 8,7 C 7,3 C 5,2 C 68 % 1004,0 hPa 0,0 l/m 5,1 km/h (1 Bft) NW 315 3,1 C 8,7 C 19,3 km/h (3 Bft)
15.11.2019 04:36 8,3 C 6,7 C 5,2 C 68 % 1004,0 hPa 0,0 l/m 5,0 km/h (1 Bft) O-NO 67 2,7 C 8,3 C 9,3 km/h (2 Bft)
15.11.2019 04:34 8,8 C 7,2 C 5,2 C 68 % 1004,0 hPa 0,0 l/m 6,0 km/h (2 Bft) O-NO 67 3,2 C 8,8 C 7,5 km/h (2 Bft)
15.11.2019 04:32 8,7 C 7,4 C 5,2 C 68 % 1004,2 hPa 0,0 l/m 6,1 km/h (2 Bft) S-SO 157 3,1 C 8,7 C 9,7 km/h (2 Bft)
15.11.2019 04:30 8,6 C 7,5 C 5,2 C 68 % 1004,2 hPa 0,0 l/m 7,4 km/h (2 Bft) S-SW 202 3,0 C 7,8 C 18,0 km/h (3 Bft)
15.11.2019 04:28 8,8 C 7,7 C 5,2 C 68 % 1004,2 hPa 0,0 l/m 8,4 km/h (2 Bft) S-SW 202 3,2 C 7,3 C 18,0 km/h (3 Bft)
15.11.2019 04:26 9,0 C 7,8 C 5,2 C 67 % 1004,2 hPa 0,0 l/m 8,5 km/h (2 Bft) S 180 3,2 C 7,5 C 16,6 km/h (3 Bft)
15.11.2019 04:24 9,0 C 7,8 C 5,2 C 67 % 1004,2 hPa 0,0 l/m 8,9 km/h (2 Bft) O-NO 67 3,2 C 7,2 C 16,6 km/h (3 Bft)
15.11.2019 04:22 8,7 C 7,8 C 5,2 C 67 % 1004,2 hPa 0,0 l/m 10,1 km/h (2 Bft) W-SW 247 2,9 C 6,1 C 10,8 km/h (2 Bft)
15.11.2019 04:20 8,8 C 7,3 C 5,2 C 67 % 1004,2 hPa 0,0 l/m 10,3 km/h (2 Bft) O-SO 112 3,0 C 6,1 C 17,6 km/h (3 Bft)
15.11.2019 04:18 8,9 C 7,6 C 5,2 C 67 % 1004,2 hPa 0,0 l/m 9,8 km/h (2 Bft) S 180 3,1 C 6,5 C 17,6 km/h (3 Bft)
15.11.2019 04:16 8,8 C 7,5 C 5,2 C 67 % 1004,2 hPa 0,0 l/m 10,5 km/h (2 Bft) S-SW 202 3,0 C 6,0 C 17,8 km/h (3 Bft)
15.11.2019 04:14 8,8 C 7,6 C 5,2 C 67 % 1004,2 hPa 0,0 l/m 12,4 km/h (3 Bft) O-NO 67 3,0 C 4,9 C 22,0 km/h (4 Bft)
15.11.2019 04:12 8,9 C 7,7 C 5,2 C 67 % 1003,8 hPa 0,0 l/m 11,4 km/h (2 Bft) SO 135 3,1 C 5,6 C 22,0 km/h (4 Bft)
15.11.2019 04:10 9,0 C 7,5 C 5,2 C 67 % 1003,8 hPa 0,0 l/m 10,6 km/h (2 Bft) NW 315 3,2 C 6,1 C 67,4 km/h (8 Bft)
15.11.2019 04:08 9,1 C 7,9 C 5,2 C 67 % 1003,8 hPa 0,0 l/m 11,1 km/h (2 Bft) S 180 3,3 C 6,0 C 22,4 km/h (4 Bft)
15.11.2019 04:06 8,9 C 8,1 C 5,2 C 67 % 1003,8 hPa 0,0 l/m 10,8 km/h (2 Bft) O-SO 112 3,1 C 5,9 C 22,4 km/h (4 Bft)
15.11.2019 04:04 8,8 C 7,6 C 5,2 C 67 % 1003,8 hPa 0,0 l/m 8,4 km/h (2 Bft) N 360 3,0 C 7,3 C 12,9 km/h (3 Bft)
15.11.2019 04:02 8,7 C 7,5 C 5,2 C 67 % 1003,8 hPa 0,0 l/m 7,2 km/h (2 Bft) O-NO 67 2,9 C 8,1 C 16,4 km/h (3 Bft)
15.11.2019 04:00 8,7 C 7,3 C 5,1 C 67 % 1003,8 hPa 0,0 l/m 7,7 km/h (2 Bft) SO 135 2,9 C 7,7 C 20,1 km/h (4 Bft)
15.11.2019 03:58 8,4 C 7,0 C 5,1 C 67 % 1003,8 hPa 0,0 l/m 7,4 km/h (2 Bft) O-NO 67 2,6 C 7,6 C 20,1 km/h (4 Bft)
15.11.2019 03:56 8,3 C 6,7 C 5,1 C 67 % 1003,8 hPa 0,0 l/m 8,4 km/h (2 Bft) NO 45 2,5 C 6,8 C 13,7 km/h (3 Bft)
15.11.2019 03:54 8,3 C 6,8 C 5,1 C 67 % 1003,8 hPa 0,0 l/m 8,5 km/h (2 Bft) S-SW 202 2,5 C 6,7 C 6,4 km/h (2 Bft)
15.11.2019 03:52 8,3 C 7,0 C 5,1 C 67 % 1003,7 hPa 0,0 l/m 9,0 km/h (2 Bft) S-SW 202 2,5 C 6,4 C 15,3 km/h (3 Bft)
15.11.2019 03:50 8,3 C 7,6 C 5,1 C 67 % 1003,7 hPa 0,0 l/m 11,1 km/h (2 Bft) NO 45 2,5 C 5,1 C 15,3 km/h (3 Bft)
15.11.2019 03:48 8,3 C 7,5 C 5,1 C 67 % 1003,7 hPa 0,0 l/m 10,9 km/h (2 Bft) W 270 2,5 C 5,2 C 13,3 km/h (3 Bft)
15.11.2019 03:46 8,0 C 6,9 C 5,1 C 67 % 1003,7 hPa 0,0 l/m 10,6 km/h (2 Bft) S 180 2,3 C 5,0 C 13,3 km/h (3 Bft)
15.11.2019 03:44 8,2 C 6,9 C 5,1 C 67 % 1003,7 hPa 0,0 l/m 11,9 km/h (2 Bft) NO 45 2,4 C 4,5 C 15,6 km/h (3 Bft)
15.11.2019 03:42 8,3 C 7,3 C 5,1 C 67 % 1003,7 hPa 0,0 l/m 14,5 km/h (3 Bft) S-SW 202 2,5 C 3,3 C 34,0 km/h (5 Bft)
15.11.2019 03:40 8,2 C 7,2 C 5,1 C 67 % 1003,7 hPa 0,0 l/m 16,1 km/h (3 Bft) S-SO 157 2,4 C 2,5 C 34,0 km/h (5 Bft)
15.11.2019 03:38 8,1 C 6,8 C 5,1 C 67 % 1003,7 hPa 0,0 l/m 15,3 km/h (3 Bft) O-SO 112 2,3 C 2,7 C 15,8 km/h (3 Bft)
15.11.2019 03:36 8,2 C 7,4 C 5,1 C 67 % 1003,7 hPa 0,0 l/m 16,3 km/h (3 Bft) O-SO 112 2,4 C 2,4 C 21,2 km/h (4 Bft)
15.11.2019 03:34 8,3 C 7,3 C 5,1 C 67 % 1003,7 hPa 0,0 l/m 14,3 km/h (3 Bft) S-SW 202 2,5 C 3,4 C 28,2 km/h (4 Bft)
15.11.2019 03:32 8,3 C 7,2 C 5,1 C 67 % 1004,1 hPa 0,0 l/m 12,9 km/h (3 Bft) O-SO 112 2,5 C 4,1 C 28,2 km/h (4 Bft)
15.11.2019 03:30 8,3 C 7,0 C 5,1 C 67 % 1004,1 hPa 0,0 l/m 12,6 km/h (3 Bft) SW 225 2,5 C 4,2 C 23,9 km/h (4 Bft)
15.11.2019 03:28 8,0 C 6,7 C 5,1 C 67 % 1004,1 hPa 0,0 l/m 12,6 km/h (3 Bft) O-SO 112 2,3 C 3,9 C 20,7 km/h (4 Bft)
15.11.2019 03:26 8,4 C 6,5 C 5,1 C 67 % 1004,1 hPa 0,0 l/m 10,9 km/h (2 Bft) W-SW 247 2,6 C 5,3 C 12,4 km/h (3 Bft)
15.11.2019 03:24 8,2 C 6,6 C 5,1 C 67 % 1004,1 hPa 0,0 l/m 10,6 km/h (2 Bft) NW 315 2,4 C 5,2 C 14,9 km/h (3 Bft)
15.11.2019 03:22 8,3 C 7,2 C 5,1 C 67 % 1004,1 hPa 0,0 l/m 10,8 km/h (2 Bft) S 180 2,5 C 5,2 C 22,6 km/h (4 Bft)
15.11.2019 03:20 8,2 C 7,4 C 5,1 C 67 % 1004,1 hPa 0,0 l/m 8,7 km/h (2 Bft) SO 135 2,4 C 6,5 C 26,3 km/h (4 Bft)
15.11.2019 03:18 8,0 C 6,4 C 5,1 C 67 % 1004,1 hPa 0,0 l/m 7,4 km/h (2 Bft) S-SO 157 2,3 C 7,2 C 26,3 km/h (4 Bft)
15.11.2019 03:16 8,0 C 5,9 C 5,1 C 67 % 1004,1 hPa 0,0 l/m 6,9 km/h (2 Bft) O-NO 67 2,3 C 7,6 C 14,7 km/h (3 Bft)
15.11.2019 03:14 8,2 C 6,6 C 5,1 C 67 % 1004,1 hPa 0,0 l/m 7,6 km/h (2 Bft) W-SW 247 2,4 C 7,3 C 17,4 km/h (3 Bft)
15.11.2019 03:12 8,2 C 6,3 C 5,1 C 67 % 1004,3 hPa 0,0 l/m 8,2 km/h (2 Bft) S-SW 202 2,4 C 6,8 C 17,4 km/h (3 Bft)
15.11.2019 03:10 8,2 C 6,8 C 5,0 C 68 % 1004,3 hPa 0,0 l/m 13,7 km/h (3 Bft) S-SO 157 2,7 C 3,6 C 15,6 km/h (3 Bft)
15.11.2019 03:08 8,2 C 6,8 C 5,0 C 68 % 1004,3 hPa 0,0 l/m 13,7 km/h (3 Bft) S-SO 157 2,7 C 3,6 C 15,6 km/h (3 Bft)
15.11.2019 03:06 8,2 C 6,8 C 5,0 C 68 % 1004,3 hPa 0,0 l/m 13,7 km/h (3 Bft) S-SO 157 2,7 C 3,6 C 15,6 km/h (3 Bft)
15.11.2019 03:04 8,2 C 6,8 C 5,0 C 68 % 1004,3 hPa 0,0 l/m 13,7 km/h (3 Bft) S-SO 157 2,7 C 3,6 C 15,6 km/h (3 Bft)
15.11.2019 03:02 8,2 C 6,8 C 5,0 C 68 % 1004,3 hPa 0,0 l/m 13,7 km/h (3 Bft) S-SO 157 2,7 C 3,6 C 15,6 km/h (3 Bft)
15.11.2019 03:00 8,1 C 6,8 C 5,0 C 68 % 1004,3 hPa 0,0 l/m 14,5 km/h (3 Bft) SO 135 2,6 C 3,1 C 56,6 km/h (7 Bft)
15.11.2019 02:58 8,0 C 7,0 C 5,0 C 68 % 1004,3 hPa 0,0 l/m 15,4 km/h (3 Bft) O-SO 112 2,5 C 2,5 C 8,9 km/h (2 Bft)
15.11.2019 02:56 8,2 C 7,2 C 5,0 C 68 % 1004,3 hPa 0,0 l/m 15,8 km/h (3 Bft) S 180 2,7 C 2,6 C 26,1 km/h (4 Bft)
15.11.2019 02:54 8,1 C 7,3 C 5,0 C 68 % 1004,3 hPa 0,0 l/m 16,1 km/h (3 Bft) W-SW 247 2,6 C 2,3 C 34,4 km/h (5 Bft)
15.11.2019 02:52 8,2 C 7,5 C 5,0 C 68 % 1004,9 hPa 0,0 l/m 14,0 km/h (3 Bft) S 180 2,7 C 3,4 C 56,6 km/h (7 Bft)
15.11.2019 02:50 8,3 C 7,5 C 5,0 C 68 % 1004,9 hPa 0,0 l/m 12,4 km/h (3 Bft) O-SO 112 2,7 C 4,3 C 56,6 km/h (7 Bft)
15.11.2019 02:48 8,2 C 7,4 C 5,0 C 68 % 1004,9 hPa 0,0 l/m 12,4 km/h (3 Bft) O-SO 112 2,7 C 4,2 C 15,6 km/h (3 Bft)
15.11.2019 02:46 8,1 C 6,9 C 5,0 C 68 % 1004,9 hPa 0,0 l/m 10,8 km/h (2 Bft) O-SO 112 2,6 C 5,0 C 15,6 km/h (3 Bft)
15.11.2019 02:44 8,1 C 6,7 C 5,0 C 68 % 1004,9 hPa 0,0 l/m 11,1 km/h (2 Bft) NO 45 2,6 C 4,8 C 13,1 km/h (3 Bft)
15.11.2019 02:42 8,1 C 7,0 C 5,0 C 68 % 1004,9 hPa 0,0 l/m 11,1 km/h (2 Bft) S-SW 202 2,6 C 4,8 C 12,9 km/h (3 Bft)
15.11.2019 02:40 8,1 C 6,9 C 5,0 C 68 % 1004,9 hPa 0,0 l/m 10,1 km/h (2 Bft) S-SW 202 2,6 C 5,4 C 30,1 km/h (5 Bft)
15.11.2019 02:38 8,1 C 6,9 C 5,0 C 68 % 1004,9 hPa 0,0 l/m 9,2 km/h (2 Bft) S-SW 202 2,6 C 6,0 C 30,1 km/h (5 Bft)
15.11.2019 02:36 8,2 C 7,3 C 5,0 C 68 % 1004,9 hPa 0,0 l/m 8,7 km/h (2 Bft) W 270 2,7 C 6,5 C 19,1 km/h (3 Bft)
15.11.2019 02:34 8,0 C 6,8 C 5,0 C 68 % 1004,9 hPa 0,0 l/m 9,2 km/h (2 Bft) N-NO 22 2,5 C 5,9 C 19,1 km/h (3 Bft)
15.11.2019 02:32 7,9 C 6,6 C 5,0 C 68 % 1004,5 hPa 0,0 l/m 8,9 km/h (2 Bft) N-NO 22 2,4 C 6,0 C 7,9 km/h (2 Bft)
15.11.2019 02:30 7,9 C 7,0 C 5,0 C 68 % 1004,5 hPa 0,0 l/m 10,6 km/h (2 Bft) W-NW 292 2,4 C 4,9 C 35,0 km/h (5 Bft)
15.11.2019 02:28 8,2 C 6,9 C 5,0 C 68 % 1004,5 hPa 0,0 l/m 10,1 km/h (2 Bft) S-SW 202 2,7 C 5,5 C 35,0 km/h (5 Bft)
15.11.2019 02:26 8,1 C 7,0 C 5,0 C 67 % 1004,5 hPa 0,0 l/m 10,9 km/h (2 Bft) O-NO 67 2,3 C 4,9 C 16,6 km/h (3 Bft)
15.11.2019 02:24 8,1 C 6,8 C 5,0 C 67 % 1004,5 hPa 0,0 l/m 11,4 km/h (2 Bft) N-NO 22 2,3 C 4,7 C 16,6 km/h (3 Bft)
15.11.2019 02:22 8,1 C 6,7 C 5,0 C 67 % 1004,5 hPa 0,0 l/m 12,9 km/h (3 Bft) SW 225 2,3 C 3,8 C 25,5 km/h (4 Bft)
15.11.2019 02:20 8,3 C 7,0 C 5,0 C 67 % 1004,5 hPa 0,0 l/m 12,9 km/h (3 Bft) S-SW 202 2,5 C 4,1 C 46,9 km/h (6 Bft)
15.11.2019 02:18 8,3 C 7,0 C 5,0 C 67 % 1004,5 hPa 0,0 l/m 12,4 km/h (3 Bft) O-NO 67 2,5 C 4,3 C 46,9 km/h (6 Bft)
15.11.2019 02:16 8,3 C 7,3 C 4,9 C 67 % 1004,5 hPa 0,0 l/m 12,9 km/h (3 Bft) S-SO 157 2,5 C 4,1 C 46,9 km/h (6 Bft)
15.11.2019 02:14 8,3 C 7,3 C 4,9 C 67 % 1004,5 hPa 0,0 l/m 10,9 km/h (2 Bft) S-SO 157 2,5 C 5,2 C 16,8 km/h (3 Bft)
15.11.2019 02:12 8,4 C 7,0 C 4,9 C 67 % 1004,8 hPa 0,0 l/m 10,1 km/h (2 Bft) S-SW 202 2,6 C 5,8 C 19,5 km/h (3 Bft)
15.11.2019 02:10 8,2 C 6,3 C 4,9 C 67 % 1004,8 hPa 0,0 l/m 8,9 km/h (2 Bft) O-NO 67 2,4 C 6,3 C 19,5 km/h (3 Bft)
15.11.2019 02:08 8,0 C 6,3 C 4,9 C 67 % 1004,8 hPa 0,0 l/m 9,2 km/h (2 Bft) W-SW 247 2,3 C 5,9 C 29,2 km/h (5 Bft)
15.11.2019 02:06 7,9 C 6,2 C 4,9 C 67 % 1004,8 hPa 0,0 l/m 9,2 km/h (2 Bft) W-SW 247 2,2 C 5,8 C 29,2 km/h (5 Bft)
15.11.2019 02:04 7,9 C 6,1 C 4,9 C 67 % 1004,8 hPa 0,0 l/m 8,7 km/h (2 Bft) N 360 2,2 C 6,1 C 21,0 km/h (4 Bft)
15.11.2019 02:02 7,9 C 6,0 C 4,9 C 67 % 1004,8 hPa 0,0 l/m 9,5 km/h (2 Bft) S-SW 202 2,2 C 5,6 C 21,0 km/h (4 Bft)
15.11.2019 02:00 8,0 C 6,6 C 4,9 C 67 % 1004,8 hPa 0,0 l/m 9,3 km/h (2 Bft) SO 135 2,3 C 5,8 C 20,7 km/h (4 Bft)
15.11.2019 01:58 7,9 C 6,4 C 4,9 C 67 % 1004,8 hPa 0,0 l/m 9,7 km/h (2 Bft) W 270 2,2 C 5,5 C 20,7 km/h (4 Bft)
15.11.2019 01:56 7,9 C 6,3 C 4,9 C 67 % 1004,8 hPa 0,0 l/m 11,1 km/h (2 Bft) N-NO 22 2,2 C 4,6 C 10,2 km/h (2 Bft)
15.11.2019 01:54 7,8 C 6,0 C 4,9 C 67 % 1004,8 hPa 0,0 l/m 12,1 km/h (2 Bft) SW 225 2,1 C 3,9 C 22,8 km/h (4 Bft)
15.11.2019 01:52 7,8 C 5,5 C 4,9 C 67 % 1004,6 hPa 0,0 l/m 12,6 km/h (3 Bft) S 180 2,1 C 3,7 C 22,8 km/h (4 Bft)
15.11.2019 01:50 7,9 C 6,2 C 4,9 C 67 % 1004,6 hPa 0,0 l/m 13,7 km/h (3 Bft) W-NW 292 2,2 C 3,2 C 13,5 km/h (3 Bft)
15.11.2019 01:48 7,9 C 6,7 C 4,9 C 67 % 1004,6 hPa 0,0 l/m 13,8 km/h (3 Bft) O-NO 67 2,2 C 3,2 C 32,3 km/h (5 Bft)
15.11.2019 01:46 7,9 C 6,7 C 4,9 C 67 % 1004,6 hPa 0,0 l/m 12,7 km/h (3 Bft) SO 135 2,2 C 3,7 C 32,3 km/h (5 Bft)
15.11.2019 01:44 7,6 C 6,3 C 4,9 C 67 % 1004,6 hPa 0,0 l/m 12,2 km/h (2 Bft) S-SO 157 1,9 C 3,6 C 23,8 km/h (4 Bft)
15.11.2019 01:42 7,9 C 6,6 C 4,9 C 67 % 1004,6 hPa 0,0 l/m 12,7 km/h (3 Bft) NO 45 2,2 C 3,7 C 22,4 km/h (4 Bft)
15.11.2019 01:40 8,0 C 6,9 C 4,9 C 67 % 1004,6 hPa 0,0 l/m 10,5 km/h (2 Bft) S-SO 157 2,3 C 5,1 C 22,4 km/h (4 Bft)
15.11.2019 01:38 7,6 C 5,6 C 4,9 C 67 % 1004,6 hPa 0,0 l/m 9,0 km/h (2 Bft) O-NO 67 1,9 C 5,6 C 10,4 km/h (2 Bft)
15.11.2019 01:36 7,8 C 5,8 C 4,9 C 67 % 1004,6 hPa 0,0 l/m 8,9 km/h (2 Bft) S-SO 157 2,1 C 5,9 C 23,8 km/h (4 Bft)
15.11.2019 01:34 7,9 C 6,5 C 4,9 C 67 % 1004,6 hPa 0,0 l/m 7,9 km/h (2 Bft) W-SW 247 2,2 C 6,7 C 23,8 km/h (4 Bft)
15.11.2019 01:32 7,7 C 6,5 C 4,9 C 67 % 1005,1 hPa 0,0 l/m 6,6 km/h (2 Bft) S 180 2,0 C 7,6 C 6,2 km/h (2 Bft)
15.11.2019 01:30 7,6 C 5,6 C 4,9 C 67 % 1005,1 hPa 0,0 l/m 6,9 km/h (2 Bft) O-NO 67 1,9 C 7,2 C 7,0 km/h (2 Bft)
15.11.2019 01:28 7,5 C 5,7 C 4,9 C 67 % 1005,1 hPa 0,0 l/m 6,8 km/h (2 Bft) W 270 1,8 C 7,2 C 7,0 km/h (2 Bft)
15.11.2019 01:26 7,7 C 5,7 C 4,9 C 67 % 1005,1 hPa 0,0 l/m 9,2 km/h (2 Bft) S-SO 157 2,0 C 5,6 C 15,8 km/h (3 Bft)
15.11.2019 01:24 8,0 C 6,6 C 4,9 C 67 % 1005,1 hPa 0,0 l/m 11,6 km/h (2 Bft) S-SO 157 2,3 C 4,4 C 15,8 km/h (3 Bft)
15.11.2019 01:22 8,0 C 6,3 C 4,9 C 67 % 1005,1 hPa 0,0 l/m 10,5 km/h (2 Bft) O-SO 112 2,3 C 5,1 C 18,7 km/h (3 Bft)
15.11.2019 01:20 8,1 C 6,4 C 4,9 C 67 % 1005,1 hPa 0,0 l/m 10,9 km/h (2 Bft) NW 315 2,3 C 4,9 C 18,7 km/h (3 Bft)
15.11.2019 01:18 8,1 C 7,0 C 4,9 C 67 % 1005,1 hPa 0,0 l/m 11,4 km/h (2 Bft) SO 135 2,3 C 4,7 C 35,1 km/h (5 Bft)
15.11.2019 01:16 7,9 C 6,7 C 4,9 C 68 % 1005,1 hPa 0,0 l/m 10,5 km/h (2 Bft) S-SO 157 2,4 C 5,0 C 35,1 km/h (5 Bft)
15.11.2019 01:14 7,7 C 6,0 C 4,9 C 68 % 1005,1 hPa 0,0 l/m 8,0 km/h (2 Bft) S-SO 157 2,2 C 6,4 C 16,0 km/h (3 Bft)
15.11.2019 01:12 7,6 C 6,0 C 4,9 C 68 % 1005,1 hPa 0,0 l/m 7,4 km/h (2 Bft) O 90 2,1 C 6,8 C 14,9 km/h (3 Bft)
15.11.2019 01:10 7,5 C 6,0 C 4,9 C 68 % 1005,1 hPa 0,0 l/m 7,9 km/h (2 Bft) NW 315 2,0 C 6,3 C 14,9 km/h (3 Bft)
15.11.2019 01:08 7,4 C 5,5 C 4,9 C 68 % 1005,1 hPa 0,0 l/m 8,4 km/h (2 Bft) O 90 1,9 C 5,8 C 10,4 km/h (2 Bft)
15.11.2019 01:06 7,4 C 5,4 C 4,7 C 68 % 1005,1 hPa 0,0 l/m 8,4 km/h (2 Bft) O-NO 67 1,9 C 5,8 C 13,3 km/h (3 Bft)
15.11.2019 01:04 7,5 C 5,5 C 4,7 C 68 % 1005,1 hPa 0,0 l/m 7,7 km/h (2 Bft) W-NW 292 2,0 C 6,5 C 13,3 km/h (3 Bft)
15.11.2019 01:02 7,7 C 6,1 C 4,7 C 68 % 1005,1 hPa 0,0 l/m 8,5 km/h (2 Bft) SO 135 2,2 C 6,1 C 18,9 km/h (3 Bft)
15.11.2019 01:00 7,7 C 6,2 C 4,7 C 69 % 1005,1 hPa 0,0 l/m 9,2 km/h (2 Bft) W-NW 292 2,4 C 5,6 C 18,9 km/h (3 Bft)
15.11.2019 00:58 7,3 C 5,8 C 4,7 C 69 % 1005,1 hPa 0,0 l/m 8,2 km/h (2 Bft) NO 45 2,0 C 5,9 C 11,4 km/h (2 Bft)
15.11.2019 00:56 7,2 C 5,1 C 4,7 C 69 % 1005,1 hPa 0,0 l/m 7,1 km/h (2 Bft) O-NO 67 1,9 C 6,6 C 12,6 km/h (3 Bft)
15.11.2019 00:54 7,2 C 5,3 C 4,7 C 68 % 1005,1 hPa 0,0 l/m 6,8 km/h (2 Bft) S-SW 202 1,7 C 6,9 C 14,1 km/h (3 Bft)
15.11.2019 00:52 7,4 C 6,0 C 4,7 C 69 % 1005,3 hPa 0,0 l/m 6,6 km/h (2 Bft) SO 135 2,1 C 7,3 C 17,4 km/h (3 Bft)
15.11.2019 00:50 7,4 C 5,7 C 4,7 C 69 % 1005,3 hPa 0,0 l/m 6,3 km/h (2 Bft) SW 225 2,1 C 7,4 C 42,5 km/h (6 Bft)
15.11.2019 00:48 7,1 C 5,3 C 4,7 C 69 % 1005,3 hPa 0,0 l/m 6,8 km/h (2 Bft) N-NO 22 1,8 C 6,8 C 9,3 km/h (2 Bft)
15.11.2019 00:46 7,1 C 5,3 C 4,7 C 69 % 1005,3 hPa 0,0 l/m 6,9 km/h (2 Bft) O-SO 112 1,8 C 6,7 C 7,9 km/h (2 Bft)
15.11.2019 00:44 7,3 C 4,8 C 4,7 C 69 % 1005,3 hPa 0,0 l/m 7,2 km/h (2 Bft) SO 135 2,0 C 6,7 C 6,0 km/h (2 Bft)
15.11.2019 00:42 7,3 C 4,9 C 4,7 C 69 % 1005,3 hPa 0,0 l/m 7,2 km/h (2 Bft) NW 315 2,0 C 6,7 C 9,7 km/h (2 Bft)
15.11.2019 00:40 7,4 C 5,3 C 4,7 C 69 % 1005,3 hPa 0,0 l/m 6,1 km/h (2 Bft) S-SW 202 2,1 C 7,4 C 13,3 km/h (3 Bft)
15.11.2019 00:38 7,4 C 5,4 C 4,8 C 69 % 1005,3 hPa 0,0 l/m 5,3 km/h (1 Bft) NO 45 2,1 C 7,4 C 13,3 km/h (3 Bft)
15.11.2019 00:36 7,1 C 5,2 C 4,8 C 69 % 1005,3 hPa 0,0 l/m 6,0 km/h (2 Bft) S 180 1,8 C 7,1 C 6,8 km/h (2 Bft)
15.11.2019 00:34 6,9 C 4,5 C 4,8 C 70 % 1005,3 hPa 0,0 l/m 5,0 km/h (1 Bft) SW 225 1,8 C 6,9 C 6,8 km/h (2 Bft)
15.11.2019 00:32 6,4 C 4,0 C 4,8 C 70 % 1005,8 hPa 0,0 l/m 4,8 km/h (1 Bft) S-SO 157 1,3 C 6,4 C 3,5 km/h (1 Bft)
15.11.2019 00:30 7,0 C 4,7 C 4,8 C 70 % 1005,8 hPa 0,0 l/m 5,5 km/h (1 Bft) O-NO 67 1,9 C 7,0 C 11,8 km/h (2 Bft)
15.11.2019 00:28 6,6 C 4,5 C 4,8 C 70 % 1005,8 hPa 0,0 l/m 6,0 km/h (2 Bft) S-SO 157 1,5 C 6,6 C 14,7 km/h (3 Bft)
15.11.2019 00:26 6,2 C 4,6 C 4,8 C 70 % 1005,8 hPa 0,0 l/m 7,4 km/h (2 Bft) O-NO 67 1,1 C 5,4 C 14,7 km/h (3 Bft)
15.11.2019 00:24 5,9 C 4,1 C 4,8 C 71 % 1005,8 hPa 0,0 l/m 7,9 km/h (2 Bft) W 270 1,1 C 4,6 C 6,4 km/h (2 Bft)
15.11.2019 00:22 6,3 C 3,7 C 4,8 C 70 % 1005,8 hPa 0,0 l/m 8,2 km/h (2 Bft) O-NO 67 1,2 C 4,8 C 9,8 km/h (2 Bft)
15.11.2019 00:20 6,1 C 4,5 C 4,8 C 70 % 1005,8 hPa 0,0 l/m 8,5 km/h (2 Bft) N-NO 22 1,0 C 4,4 C 36,1 km/h (5 Bft)
15.11.2019 00:18 6,6 C 5,5 C 4,8 C 70 % 1005,8 hPa 0,0 l/m 7,7 km/h (2 Bft) O-NO 67 1,5 C 5,5 C 21,6 km/h (4 Bft)
15.11.2019 00:16 6,4 C 5,0 C 4,8 C 70 % 1005,8 hPa 0,0 l/m 5,6 km/h (1 Bft) S-SW 202 1,3 C 6,4 C 22,6 km/h (4 Bft)
15.11.2019 00:14 6,0 C 4,2 C 4,8 C 70 % 1005,8 hPa 0,0 l/m 5,0 km/h (1 Bft) S 180 1,0 C 6,0 C 22,6 km/h (4 Bft)
15.11.2019 00:12 5,9 C 4,0 C 4,8 C 70 % 1005,5 hPa 0,0 l/m 5,1 km/h (1 Bft) NO 45 0,9 C 5,9 C 11,6 km/h (2 Bft)
15.11.2019 00:10 6,0 C 3,7 C 4,8 C 69 % 1005,5 hPa 0,0 l/m 3,7 km/h (1 Bft) SO 135 0,8 C 6,0 C 9,1 km/h (2 Bft)
15.11.2019 00:08 6,0 C 3,7 C 4,8 C 69 % 1005,5 hPa 0,0 l/m 3,7 km/h (1 Bft) SO 135 0,8 C 6,0 C 9,1 km/h (2 Bft)
15.11.2019 00:06 6,0 C 3,7 C 4,8 C 69 % 1005,5 hPa 0,0 l/m 3,7 km/h (1 Bft) SO 135 0,8 C 6,0 C 9,1 km/h (2 Bft)
15.11.2019 00:04 6,0 C 3,7 C 4,8 C 69 % 1005,5 hPa 0,0 l/m 3,7 km/h (1 Bft) SO 135 0,8 C 6,0 C 9,1 km/h (2 Bft)
15.11.2019 00:02 6,0 C 3,7 C 4,8 C 69 % 1005,5 hPa 0,0 l/m 3,7 km/h (1 Bft) SO 135 0,8 C 6,0 C 9,8 km/h (2 Bft)
15.11.2019 00:00 5,8 C 3,5 C 4,8 C 70 % 1005,5 hPa 0,0 l/m 4,0 km/h (1 Bft) S-SW 202 0,8 C 5,8 C 9,8 km/h (2 Bft)
_ Min-Zeit 00:00 00:00 00:40 05:48 05:34 - 05:16 - - 00:02 02:54 00:32
Minimum _ 5,8 C 3,5 C 4,7 C 66 % 1003,4 hPa - 3,1 km/h (1 Bft) - - 0,8 C 2,3 C 3,5 km/h (1 Bft)
_ Max-Zeit 05:50 05:06 05:34 00:24 00:14 00:00 03:36 - - 05:06 05:30 04:10
Maximum _ 10,3 C 9,1 C 5,4 C 71 % 1005,8 hPa 0,0 l/m 16,3 km/h
O-SO (3 Bft)
- - 4,4 C 9,6 C 67,4 km/h
NW (8 Bft)
Durchschnitt _ 8,2 C 6,8 C 5,0 C 68 % 1004,5 hPa #0,0 l/m 9,0 km/h (2 Bft) O-NO - 2,6 C 6,2 C 18,7 km/h (3 Bft)